[[{"header":{"parameterUnit":"m.s-1","parameterCategory":1,"la1":30.2991,"la2":30.254,"lo1":-89.0895,"lo2":-89.0444,"dy":0.0017,"dx":0.0017,"nx":28,"ny":28,"refTime":"2025-08-06T03:00:00:Z","depth":0,"parameterNumber":2,"parameterNumberName":"U-component_of_WINDS"},"data":[0,0,0,0,0,0,0,0,0,0,0,0,0,0,0,0,0,0,0,0,0,0,0,0,0,0,0,0,0,0,0,0,0,0,0,0,0,0,0,0,0,0,0,0,0,0,0,0,0,0,0,0,0,0,0,0,0,0,-1.4544,-1.4545,0,-1.4644,-1.4645,-1.4646,-1.4643,-1.4642,-1.464,-1.4639,-1.4749,-1.4753,-1.4757,0,0,0,0,0,0,0,0,0,0,0,0,0,-1.4358,-1.4362,-1.4544,-1.4545,-1.4546,-1.4644,-1.4645,-1.4646,-1.4643,-1.4642,-1.464,-1.4638,-1.4748,-1.4753,-1.4758,0,0,0,0,0,0,0,0,0,0,0,0,0,-1.4447,-1.4363,-1.4544,-1.4556,-1.4558,-1.4643,-1.4645,-1.4647,-1.4644,-1.4642,-1.4639,-1.4637,-1.4746,-1.4752,-1.4758,-1.484,0,0,-1.4778,-1.4781,0,0,0,0,0,0,0,0,-1.4442,-1.4454,-1.4553,-1.4556,-1.4558,-1.4629,-1.462,-1.4712,-1.4644,-1.4612,-1.4639,-1.4636,-1.4711,-1.472,-1.4744,-1.4845,-1.485,-1.4778,-1.4782,-1.4785,-1.4787,0,0,0,0,0,0,0,-1.4436,-1.4449,-1.4584,-1.4555,-1.4558,-1.456,-1.457,-1.4637,-1.4672,-1.4614,-1.4614,-1.4626,-1.4712,-1.4738,-1.4746,-1.4851,-1.4778,-1.4784,-1.4788,-1.479,-1.5026,-1.5028,0,0,0,0,0,0,-1.4426,-1.4444,-1.4581,-1.4587,-1.4493,-1.4565,-1.4576,-1.4608,-1.4671,-1.4679,-1.4627,-1.4625,-1.4728,-1.4739,-1.475,-1.4851,-1.4785,-1.4791,-1.4795,-1.5023,-1.5026,-1.5029,0,0,0,0,0,0,-1.4422,-1.4438,-1.4577,-1.4515,-1.4533,-1.457,-1.4606,-1.4611,-1.4637,-1.4681,-1.4688,-1.4647,-1.4727,-1.4741,-1.4817,-1.4854,-1.4794,-1.48,-1.502,-1.5024,-1.5028,-1.5051,0,0,0,0,0,0,-1.4416,-1.4436,-1.4466,-1.4516,-1.4536,-1.4639,-1.4609,-1.4615,-1.4647,-1.4645,-1.4701,-1.4708,-1.4726,-1.4808,-1.4824,-1.4862,-1.4804,-1.5017,-1.5022,-1.5026,-1.5047,-1.5055,-1.5062,0,0,0,0,0,-1.441,-1.447,-1.4467,-1.4484,-1.4574,-1.4642,-1.4654,-1.467,-1.465,-1.4681,-1.471,-1.4707,-1.4847,-1.4816,-1.4833,-1.4874,-1.5015,-1.5021,-1.5026,-1.5044,-1.5053,-1.5062,0,0,0,0,0,0,-1.4426,-1.4477,-1.4474,-1.4552,-1.4592,-1.4641,-1.468,-1.468,-1.4729,-1.4725,-1.4747,-1.4759,-1.4836,-1.4863,-1.4826,-1.4957,-1.4929,-1.4938,-1.4936,-1.4946,-1.4953,-1.4946,-1.481,0,0,0,0,0,-1.4437,-1.4486,-1.4529,-1.4594,-1.4614,-1.4644,-1.4674,-1.4683,-1.4727,-1.4745,-1.4779,-1.4823,-1.4878,-1.4913,-1.4966,-1.5051,-1.5064,-1.5088,-1.5095,-1.5101,-1.5109,-1.5158,-1.5169,-1.5047,-1.5047,-1.5047,0,0,-1.4464,-1.4498,-1.4528,-1.4598,-1.463,-1.4682,-1.4658,-1.4714,-1.4754,-1.4754,-1.4827,-1.4854,-1.4905,-1.4986,-1.5024,-1.5011,-1.5146,-1.5108,-1.5112,-1.5117,-1.5165,-1.5176,-1.5186,-1.5051,-1.505,-1.5049,0,0,-1.4539,-1.4568,-1.4626,-1.4658,-1.4706,-1.4726,-1.4739,-1.4788,-1.4805,-1.4879,-1.488,-1.4929,-1.5022,-1.5059,-1.5089,-1.5178,-1.5178,-1.5195,-1.5234,-1.5281,-1.5291,-1.5299,-1.5332,-1.5344,-1.5203,-1.5203,-1.5203,0,-1.4566,-1.4642,-1.4656,-1.4712,-1.4744,-1.4744,-1.4803,-1.4835,-1.4899,-1.4922,-1.4906,-1.5023,-1.5058,-1.5148,-1.5169,-1.5194,-1.5212,-1.5189,-1.5287,-1.5296,-1.5305,-1.5337,-1.5349,-1.5205,-1.5205,-1.5204,-1.5204,0,-1.4674,-1.4727,-1.4768,-1.4827,-1.4863,-1.4921,-1.4946,-1.4982,-1.4988,-1.501,-1.5086,-1.5127,-1.5189,-1.5211,-1.5218,-1.5303,-1.5293,-1.5282,-1.5255,-1.5318,-1.5348,-1.5361,-1.5207,-1.5207,-1.5206,-1.5206,0,0,-1.4762,-1.4827,-1.4842,-1.4869,-1.4923,-1.4965,-1.5024,-1.5081,-1.5112,-1.5157,-1.5208,-1.5287,-1.5277,-1.5312,-1.5324,-1.5365,-1.5435,-1.5349,-1.5351,-1.5365,-1.5532,-1.554,-1.5554,-1.5434,-1.5437,-1.5438,-1.5528,0,-1.4843,-1.4944,-1.4958,-1.5049,-1.5099,-1.51,-1.5152,-1.5191,-1.5214,-1.5262,-1.5288,-1.5343,-1.5325,-1.5347,-1.5387,-1.5417,-1.5469,-1.5411,-1.5485,-1.5487,-1.5472,-1.557,-1.5579,-1.5661,-1.554,-1.5542,-1.5543,0,-1.4951,-1.4995,-1.509,-1.5137,-1.5159,-1.5204,-1.5259,-1.5304,-1.535,-1.5363,-1.5402,-1.5409,-1.5473,-1.5442,-1.5532,-1.5492,-1.5523,-1.5543,-1.5547,-1.5555,-1.552,-1.5582,-1.5688,-1.57,-1.5562,-1.556,-1.5559,0,-1.5007,-1.5091,-1.5159,-1.5182,-1.5238,-1.527,-1.5296,-1.5339,-1.5373,-1.5422,-1.5444,-1.55,-1.5531,-1.5576,-1.5599,-1.5574,-1.5688,-1.5658,-1.5703,-1.5703,-1.5728,-1.5726,-1.5841,-1.5746,-1.5746,-1.5746,-1.5745,0,-1.5096,-1.5154,-1.5184,-1.5226,-1.5292,-1.5309,-1.5375,-1.54,-1.5439,-1.5488,-1.5493,-1.5539,-1.5566,-1.5618,-1.5637,-1.5709,-1.5723,-1.5737,-1.5742,-1.5738,-1.5736,-1.5759,-1.5754,-1.5749,-1.5748,-1.5748,-1.5747,0,-1.517,-1.5192,-1.5266,-1.5312,-1.5326,-1.5373,-1.5414,-1.5456,-1.5478,-1.5539,-1.5555,-1.5591,-1.5651,-1.5678,-1.5753,-1.5766,-1.5849,-1.5849,-1.5832,-1.5834,-1.5878,-1.5874,-1.6013,-1.6033,-1.5923,-1.5924,-1.5925,0,-1.5226,-1.527,-1.5321,-1.5353,-1.5378,-1.543,-1.5463,-1.5483,-1.5519,-1.5574,-1.5611,-1.567,-1.5719,-1.5816,-1.5851,-1.5909,-1.5911,-1.5956,-1.592,-1.5914,-1.5913,-1.5911,-1.5916,-1.5963,-1.5964,-1.5964,-1.5965,0,-1.5323,-1.5332,-1.5379,-1.5431,-1.547,-1.5513,-1.5554,-1.5581,-1.5607,-1.5647,-1.5708,-1.5745,-1.5821,-1.5882,-1.5942,-1.5971,-1.5974,-1.5976,-1.599,-1.5986,-1.5975,-1.5983,-1.5851,-1.5973,-1.5972,-1.5972,-1.5971,-1.5971,-1.5391,-1.5431,-1.5473,-1.5526,-1.5558,-1.5597,-1.5639,-1.5665,-1.5715,-1.5776,-1.5785,-1.585,-1.5897,-1.5978,-1.6009,-1.6062,-1.6052,-1.6071,-1.6076,-1.6081,-1.6084,-1.5965,-1.6073,-1.6073,-1.6073,-1.6073,-1.6073,0,-1.549,-1.5516,-1.5565,-1.5621,-1.5664,-1.5659,-1.5705,-1.5742,-1.5798,-1.584,-1.5887,-1.5957,-1.6016,-1.6054,-1.6114,-1.615,-1.6152,-1.6165,-1.6163,-1.617,-1.609,-1.6072,-1.6162,-1.6162,-1.6161,-1.6161,-1.6161,-1.6161,-1.5546,-1.5613,-1.5627,-1.5712,-1.5739,-1.58,-1.5827,-1.5864,-1.5897,-1.5975,-1.6022,-1.6046,-1.6088,-1.615,-1.6205,-1.6215,-1.6238,-1.6251,-1.6261,-1.6185,-1.6176,-1.6167,-1.6151,-1.6255,-1.6255,-1.6337,-1.6338,-1.6338]},{"header":{"parameterUnit":"m.s-1","parameterCategory":1,"la1":30.2991,"la2":30.254,"lo1":-89.0895,"lo2":-89.0444,"dy":0.0017,"dx":0.0017,"nx":28,"ny":28,"refTime":"2025-08-06T03:00:00:Z","depth":0,"parameterNumber":3,"parameterNumberName":"V-component_of_WINDS"},"data":[0,0,0,0,0,0,0,0,0,0,0,0,0,0,0,0,0,0,0,0,0,0,0,0,0,0,0,0,0,0,0,0,0,0,0,0,0,0,0,0,0,0,0,0,0,0,0,0,0,0,0,0,0,0,0,0,0,0,0.9229,0.9228,0,0.9166,0.9165,0.9165,0.918,0.9181,0.9183,0.9184,0.9112,0.9109,0.9106,0,0,0,0,0,0,0,0,0,0,0,0,0,0.9357,0.9354,0.9229,0.9228,0.9228,0.9166,0.9165,0.9164,0.918,0.9181,0.9183,0.9184,0.9113,0.9109,0.9106,0,0,0,0,0,0,0,0,0,0,0,0,0,0.9298,0.9354,0.9229,0.9228,0.9227,0.9166,0.9165,0.9164,0.918,0.9181,0.9183,0.9185,0.9114,0.911,0.9105,0.9039,0,0,0.9091,0.9089,0,0,0,0,0,0,0,0,0.9302,0.9293,0.9229,0.9228,0.9227,0.9183,0.9184,0.9122,0.9179,0.9197,0.9184,0.9186,0.9133,0.9127,0.9111,0.9036,0.9033,0.9091,0.9088,0.9086,0.9084,0,0,0,0,0,0,0,0.9306,0.9296,0.9204,0.9228,0.9227,0.9229,0.9222,0.9172,0.9155,0.9196,0.9197,0.919,0.9133,0.9116,0.911,0.9032,0.9091,0.9087,0.9084,0.9082,0.8899,0.8897,0,0,0,0,0,0,0.9311,0.93,0.9206,0.9202,0.927,0.9225,0.9218,0.9195,0.9156,0.9152,0.9188,0.9191,0.9123,0.9115,0.9107,0.9027,0.9086,0.9081,0.9079,0.8901,0.8899,0.8897,0,0,0,0,0,0,0.9314,0.9303,0.9209,0.9251,0.9239,0.9221,0.9195,0.9193,0.9175,0.915,0.9147,0.9174,0.9124,0.9114,0.9057,0.9025,0.9079,0.9075,0.8904,0.8901,0.8898,0.8867,0,0,0,0,0,0,0.9318,0.9304,0.928,0.9251,0.9237,0.9161,0.9193,0.919,0.9168,0.9171,0.9136,0.9132,0.9124,0.9063,0.9052,0.902,0.9072,0.8906,0.8902,0.8899,0.8871,0.8863,0.8857,0,0,0,0,0,0.9322,0.9272,0.9278,0.9267,0.9207,0.9159,0.9151,0.9146,0.9166,0.9141,0.9125,0.9133,0.9031,0.9057,0.9045,0.901,0.8908,0.8903,0.8899,0.8874,0.8865,0.8857,0,0,0,0,0,0,0.9295,0.9268,0.9275,0.9214,0.9189,0.9162,0.9129,0.9136,0.9103,0.9106,0.9099,0.9091,0.9033,0.9016,0.9046,0.8945,0.8972,0.8965,0.8958,0.8949,0.8942,0.8946,0.9068,0,0,0,0,0,0.9283,0.9248,0.9225,0.9174,0.9161,0.9148,0.9126,0.9125,0.9098,0.9086,0.9066,0.9037,0.8999,0.8973,0.8936,0.887,0.8861,0.884,0.8833,0.8827,0.882,0.8783,0.8773,0.8881,0.8881,0.8881,0,0,0.9255,0.9236,0.9214,0.9168,0.9148,0.911,0.9138,0.9097,0.9068,0.9079,0.9024,0.9009,0.8976,0.8914,0.8885,0.8898,0.8789,0.8821,0.8817,0.8813,0.8777,0.8767,0.8758,0.8878,0.8878,0.8879,0,0,0.9186,0.9169,0.9124,0.9105,0.9076,0.9067,0.9057,0.9029,0.9019,0.8965,0.8973,0.8938,0.8872,0.8848,0.8827,0.8752,0.8757,0.874,0.8702,0.8666,0.8658,0.865,0.8621,0.8611,0.8733,0.8733,0.8733,0,0.9155,0.91,0.91,0.9058,0.9037,0.9049,0.9002,0.8983,0.8942,0.8926,0.8942,0.8861,0.8839,0.8771,0.8753,0.8737,0.8723,0.8742,0.8659,0.8652,0.8644,0.8617,0.8607,0.8731,0.8731,0.8731,0.8732,0,0.9063,0.9025,0.8992,0.8955,0.8931,0.8887,0.8878,0.8853,0.8855,0.8844,0.8788,0.8764,0.8723,0.8707,0.8706,0.8639,0.8648,0.8662,0.8688,0.8632,0.8606,0.8596,0.8728,0.8729,0.8729,0.873,0,0,0.8972,0.8938,0.8925,0.8909,0.8879,0.8848,0.8805,0.8767,0.8745,0.8717,0.8679,0.8625,0.8638,0.8614,0.8612,0.858,0.8521,0.8598,0.8597,0.8583,0.8443,0.8431,0.8419,0.8526,0.8524,0.8522,0.8445,0,0.8899,0.8825,0.8824,0.8754,0.8719,0.873,0.8692,0.8668,0.8658,0.8625,0.8612,0.8573,0.8594,0.858,0.855,0.8534,0.8492,0.854,0.8488,0.8486,0.8493,0.8406,0.8393,0.8322,0.8435,0.8434,0.8433,0,0.8803,0.8775,0.8703,0.8679,0.8663,0.8629,0.8595,0.8564,0.8537,0.8532,0.8507,0.8509,0.8463,0.8494,0.8429,0.8462,0.8441,0.843,0.8427,0.842,0.8454,0.8395,0.8299,0.8288,0.8417,0.8418,0.8419,0,0.8742,0.8686,0.8636,0.8622,0.8592,0.8568,0.8554,0.853,0.8507,0.8477,0.8462,0.8426,0.8405,0.8376,0.8368,0.8391,0.8303,0.8333,0.8295,0.8295,0.8273,0.8274,0.8171,0.8263,0.8264,0.8264,0.8264,0,0.8659,0.8614,0.8608,0.8577,0.8527,0.8526,0.8476,0.8464,0.8442,0.8407,0.8415,0.8381,0.8374,0.8339,0.8333,0.8279,0.827,0.8263,0.8261,0.8261,0.8262,0.8245,0.8249,0.8261,0.8262,0.8262,0.8263,0,0.8582,0.8576,0.8522,0.85,0.8493,0.8457,0.8437,0.8406,0.8398,0.8354,0.8344,0.8329,0.8289,0.8279,0.8229,0.8225,0.8161,0.8166,0.8171,0.8171,0.8132,0.8135,0.8013,0.7996,0.8101,0.81,0.81,0,0.8528,0.8494,0.847,0.8448,0.8434,0.8399,0.8377,0.8375,0.8352,0.832,0.8292,0.8253,0.8221,0.8155,0.8139,0.8101,0.8103,0.8063,0.8097,0.8098,0.81,0.8101,0.8097,0.8055,0.8054,0.8053,0.8053,0,0.8433,0.8433,0.8402,0.837,0.8345,0.8319,0.8294,0.8276,0.827,0.8243,0.8203,0.8179,0.813,0.809,0.8053,0.8036,0.8042,0.8043,0.8031,0.8029,0.8033,0.8029,0.8151,0.8045,0.8045,0.8046,0.8046,0.8047,0.8365,0.8335,0.8314,0.8279,0.8261,0.8238,0.8209,0.8198,0.8165,0.8127,0.8128,0.8083,0.8057,0.8008,0.799,0.7954,0.7966,0.795,0.7945,0.7941,0.7937,0.8042,0.7947,0.7947,0.7948,0.7948,0.7948,0,0.8269,0.8256,0.8225,0.8192,0.8164,0.8177,0.815,0.8126,0.8087,0.8064,0.8034,0.7987,0.7949,0.7931,0.7893,0.7867,0.7869,0.7857,0.7858,0.7854,0.7929,0.7942,0.7856,0.7856,0.7856,0.7856,0.7856,0.7856,0.8216,0.8166,0.8163,0.8105,0.8092,0.805,0.8034,0.8013,0.7994,0.7943,0.7912,0.7902,0.788,0.7841,0.7806,0.7802,0.7786,0.7772,0.7769,0.7839,0.7848,0.7857,0.7869,0.7769,0.7769,0.7696,0.7695,0.7695]}]]